Вернуться в каталог

Sitro-TD-3

АктивенСвязьSSO
NORAD 67270·PAYLOAD·🇷🇺 Russia

Запущен Dec 28, 2025 с Vostochny Cosmodrome

Loading…

Ближайшие Пролёты (ближайшие 24 часа)

TLE

СвежийSource: Space-Track

Эпоха: Sep 14, 2026, 11:19 UTC

1 67270U 25313Y   26257.47157001  .00006780  00000-0  27574-3 0  9992
2 67270  97.3868 330.9237 0015060  54.2123 306.0512 15.24751478 39554

Отслеживайте Sitro-TD-3 в реальном времени с AllMySat

Download on the App Store